Location: Oshawa
(43.9000°N, 78.8670°W)
Time: 20:16:36
(UTC-04:00)

SPOT 5 - Visible Passes

Search period start: 30 August 2014 00:00
Search period end: 09 September 2014 00:00
Orbit: 824 x 826 km, 98.6° (Epoch: 30 August)

Date Brightness Start Highest point End Pass type
(mag) Time Alt. Az. Time Alt. Az. Time Alt. Az.
30 Aug 4.9 20:41:47 10° E 20:44:45 15° ENE 20:47:42 10° NNE visible
30 Aug 3.1 22:23:04 57° S 22:24:13 85° WSW 22:29:38 10° NNW visible
31 Aug 5.7 00:04:32 11° W 00:05:11 11° W 00:06:35 10° WNW visible
31 Aug 5.2 20:24:49 10° ENE 20:25:43 10° NE 20:26:37 10° NE visible
31 Aug 3.1 22:03:36 49° SE 22:04:54 67° ENE 22:10:14 10° N visible
31 Aug 5.3 23:45:04 17° W 23:45:34 17° W 23:49:00 10° NW visible
01 Sep 3.5 21:44:08 36° ESE 21:45:38 46° ENE 21:50:44 10° N visible
01 Sep 4.8 23:25:36 25° W 23:26:01 25° W 23:30:24 10° NW visible
02 Sep 4.0 21:24:39 26° E 21:26:25 32° ENE 21:31:07 10° N visible
02 Sep 4.2 23:06:07 36° WSW 23:06:31 36° W 23:11:28 10° NNW visible
03 Sep 4.5 21:05:11 18° E 21:07:15 23° ENE 21:11:22 10° NNE visible
03 Sep 3.6 22:46:39 52° WSW 22:47:04 54° W 22:52:21 10° NNW visible
04 Sep 4.8 20:45:43 12° E 20:48:09 16° ENE 20:51:21 10° NNE visible
04 Sep 3.1 22:27:11 71° SSW 22:27:41 79° WSW 22:33:05 10° NNW visible
05 Sep 5.1 20:27:33 10° ENE 20:29:07 11° NE 20:30:41 10° NE visible
05 Sep 3.0 22:07:43 64° ESE 22:08:21 72° ENE 22:13:43 10° N visible
05 Sep 5.4 23:49:11 16° W 23:49:11 16° W 23:52:14 10° NW visible
06 Sep 3.4 21:48:15 45° E 21:49:04 49° ENE 21:54:14 10° N visible
06 Sep 5.0 23:29:43 23° W 23:29:43 23° W 23:33:44 10° NW visible
07 Sep 3.9 21:28:46 31° E 21:29:50 34° ENE 21:34:39 10° N visible
07 Sep 4.4 23:10:14 34° W 23:10:14 34° W 23:14:51 10° NNW visible
08 Sep 4.3 21:09:18 22° E 21:10:40 24° ENE 21:14:55 10° N visible
08 Sep 3.8 22:50:46 49° W 22:50:46 49° W 22:55:46 10° NNW visible
